RH
29 30 34 41 41 40 40 37 36 37 38 39 38 38 41 44 47 47 46 45 41 38 39 39 36 35 36 36 37 39 40 41 40 40 43 46 46 45 46 48 48 47
27 27 29 35 38 38 37 37 36 36 39 43 42 39 39 42 44 46 47 46 43 40 39 37 36 34 34 35 35 37 39 39 38 38 40 44 47 47 48 47 45 44
26 26 26 28 32 33 34 37 38 39 42 46 46 45 44 42 41 43 44 44 43 43 42 39 38 37 37 37 36 36 38 38 37 38 40 42 44 44 44 43 42 42
26 26 26 26 29 29 30 34 38 39 42 44 45 47 47 45 45 43 42 41 41 43 45 45 44 42 41 42 41 39 39 39 38 38 41 42 42 39 38 39 40 42
29 28 28 29 29 29 30 33 36 38 42 44 45 44 45 48 49 47 45 43 42 42 44 47 48 46 45 45 44 42 42 41 41 42 45 47 46 42 40 41 45 47
33 33 32 32 34 35 37 38 39 40 42 44 45 45 45 47 47 47 48 49 48 47 46 46 49 51 50 50 48 46 45 43 44 46 47 48 49 48 46 46 48 50
35 36 36 36 39 42 44 44 44 46 46 46 46 46 46 47 48 48 49 51 51 50 49 50 53 57 57 56 52 50 48 47 48 50 50 49 49 48 47 45 46 49
39 38 38 39 41 44 47 48 49 51 51 50 50 50 49 48 50 50 50 52 51 50 52 53 55 58 58 56 54 53 51 50 51 55 59 59 55 52 52 52 52 54
45 43 41 40 41 45 48 49 52 54 54 53 53 52 51 51 51 51 51 53 53 53 54 53 52 52 53 53 54 56 55 52 52 56 60 63 61 59 58 58 58 59
47 46 46 45 45 47 49 50 52 54 54 54 53 52 53 55 55 55 54 54 54 54 55 54 53 51 51 52 53 55 56 54 53 55 57 60 59 58 57 58 58 59
47 46 46 46 46 46 47 48 50 52 53 55 55 53 55 57 57 57 57 56 56 55 55 56 55 53 52 52 53 54 54 54 54 56 58 60 60 59 59 58 57 58
45 45 45 45 45 44 45 46 48 51 53 55 55 55 58 59 57 57 58 58 57 54 54 55 55 55 55 54 53 53 52 53 55 55 56 57 59 61 61 59 56 56
42 43 44 46 47 47 46 45 46 50 52 54 55 57 61 62 58 55 54 54 55 53 51 52 53 54 54 54 53 52 51 52 53 54 54 55 56 57 57 55 53 53
41 43 44 46 47 49 48 46 46 48 51 53 54 56 60 62 59 57 56 57 62 64 61 57 58 59 57 54 54 53 52 52 51 51 53 54 55 55 54 52 51 52
41 42 44 45 46 47 47 46 46 47 50 51 51 54 59 60 59 60 62 63 68 73 71 66 66 66 59 53 55 56 57 57 57 56 54 54 54 56 55 55 56 55
42 41 42 44 44 45 47 47 45 46 48 48 50 54 56 57 59 62 62 60 61 66 71 70 69 67 61 56 56 57 58 61 62 61 60 58 56 54 54 54 54 54
42 43 44 44 44 47 50 50 48 50 51 50 50 51 50 50 54 56 55 55 56 63 71 73 70 69 68 66 62 58 58 60 61 61 61 60 58 55 53 52 51 52
46 47 47 45 45 47 50 53 55 56 57 53 50 49 49 51 53 52 52 54 57 62 68 70 71 73 75 73 66 62 61 62 63 63 63 64 64 63 60 56 53 51
60 58 53 48 46 47 49 53 56 59 59 57 54 51 51 53 55 54 54 55 58 62 65 67 69 73 76 75 71 67 65 63 64 64 63 62 63 65 64 62 59 54
61 61 57 50 47 48 50 53 55 56 58 59 57 52 49 50 52 53 54 55 57 59 60 61 61 63 68 73 74 72 69 65 63 61 58 56 56 57 57 56 58 58
51 55 57 53 51 51 53 53 55 57 59 62 61 56 51 48 47 50 51 52 54 55 54 54 54 57 64 70 72 72 71 69 65 61 56 53 52 51 49 50 54 58
57 59 63 64 62 57 55 55 56 58 62 65 66 64 60 55 50 49 50 50 53 54 54 55 56 59 65 68 69 70 72 73 71 67 63 60 57 54 52 52 53 55
67 66 68 72 69 64 62 60 59 62 66 70 73 73 70 66 61 57 56 57 59 61 63 66 68 69 71 72 73 74 75 77 77 76 73 71 68 64 61 58 54 53
71 69 68 72 72 70 69 67 66 67 68 70 75 78 76 73 70 67 67 71 73 73 74 77 78 79 78 77 78 79 80 81 81 80 79 78 77 75 72 68 63 59
72 71 69 72 75 76 74 72 72 73 70 69 74 78 79 78 77 76 76 79 82 82 82 84 85 86 84 82 82 83 84 85 84 82 81 81 80 80 78 76 72 68
77 75 72 73 77 78 77 76 76 78 77 75 76 79 79 78 80 81 81 84 87 87 85 85 87 88 87 86 85 85 85 86 85 83 82 81 81 80 80 78 75 71